Overview Statistics Trail Chart Weather Telemetry Raw packets
 

This is the latest recevied weather packets stored in our database for station/object EA5CLU-13. If no packets are shown the sender has not sent any weather packets the latest 10 day(s).

<< 16 17 18 19 20 21 22 >>
Time Temp. Humidity Pressure Rain* Wind** Luminosity Snow
1788003282 26.11° C - 1022.4 hPa 0 mm - - -
1788002980 26.11° C - 1022.3 hPa 0 mm - - -
1788002679 26.11° C - 1022.6 hPa 0 mm - - -
1788002379 26.11° C - 1022.4 hPa 0 mm - - -
1788002080 26.11° C - 1022.3 hPa 0 mm - - -
1788001780 26.67° C - 1022.3 hPa 0 mm - - -
1788001480 25.56° C - 1022.5 hPa 0 mm - - -
1788001180 26.11° C - 1022.4 hPa 0 mm - - -
1788000879 26.11° C - 1022.2 hPa 0 mm - - -
1788000578 26.11° C - 1022.2 hPa 0 mm - - -
1787999980 26.11° C - 1022.5 hPa 0 mm - - -
1787999680 26.67° C - 1022.5 hPa 0 mm - - -
1787999379 26.11° C - 1022.6 hPa 0 mm - - -
1787999079 26.67° C - 1022.6 hPa 0 mm - - -
1787998778 26.11° C - 1022.5 hPa 0 mm - - -
1787998478 26.11° C - 1022.6 hPa 0 mm - - -
1787998180 26.11° C - 1022.7 hPa 0 mm - - -
1787997879 25.56° C - 1022.6 hPa 0 mm - - -
1787997278 25.56° C - 1022.8 hPa 0 mm - - -
1787996978 25° C - 1022.9 hPa 0 mm - - -
1787996380 25° C - 1023 hPa 0 mm - - -
1787996080 24.44° C - 1022.8 hPa 0 mm - - -
1787995780 23.89° C - 1023.1 hPa 0 mm - - -
1787995479 23.89° C - 1023 hPa 0 mm - - -
1787995178 23.89° C - 1023 hPa 0 mm - - -

* Rain latest hour (hover to see other rain measurements)
** Current wind speed in m/s (hover to see current wind gust speed)